PT0178 EGKK-EGPH

Flight info

Callsign PT0178
Flight time 1h 3m
Altitude 36000
Route LAM L10 BPK UN601 RIBEL DCT INPIP
Aircraft B738/M-SDE2E3FGHIRWXY/LB1

Departure

Time 2026-04-22 15:19
Airport London Gatwick Airport (EGKK)

Arrival

Time 2026-04-22 16:23
Airport Edinburgh Airport (EGPH)
Time Latitude Longitude Altitude Speed Heading
2026-04-22 14:24 51.15743 -0.16840 202 ft 0 kts
2026-04-22 14:47 51.15742 -0.16840 202 ft 2 kts
2026-04-22 14:48 51.15724 -0.16844 207 ft 3 kts
2026-04-22 14:48 51.15706 -0.16847 202 ft 3 kts
2026-04-22 14:48 51.15688 -0.16851 205 ft 3 kts
2026-04-22 14:48 51.15672 -0.16847 205 ft 2 kts 313°
2026-04-22 14:49 51.15665 -0.16823 213 ft 2 kts 254°
2026-04-22 14:49 51.15675 -0.16801 208 ft 3 kts 209°
2026-04-22 14:49 51.15691 -0.16791 211 ft 2 kts 193°
2026-04-22 14:49 51.15707 -0.16786 211 ft 2 kts 189°
2026-04-22 14:50 51.15724 -0.16781 213 ft 0 kts 189°
2026-04-22 14:51 51.15722 -0.16782 214 ft 1 kts 191°
2026-04-22 14:52 51.15700 -0.16792 210 ft 6 kts 197°
2026-04-22 14:52 51.15669 -0.16870 215 ft 11 kts 254°
2026-04-22 14:52 51.15650 -0.17002 206 ft 13 kts 259°
2026-04-22 14:52 51.15628 -0.17150 212 ft 14 kts 257°
2026-04-22 14:53 51.15606 -0.17293 206 ft 12 kts 257°
2026-04-22 14:53 51.15590 -0.17392 215 ft 8 kts 250°
2026-04-22 14:53 51.15558 -0.17457 207 ft 7 kts 229°
2026-04-22 14:53 51.15538 -0.17526 207 ft 7 kts 253°
2026-04-22 14:54 51.15528 -0.17597 208 ft 7 kts 257°
2026-04-22 14:54 51.15517 -0.17672 213 ft 8 kts 257°
2026-04-22 14:54 51.15505 -0.17767 206 ft 10 kts 258°
2026-04-22 14:54 51.15489 -0.17884 215 ft 12 kts 257°
2026-04-22 14:55 51.15470 -0.18022 213 ft 14 kts 258°
2026-04-22 14:55 51.15449 -0.18171 212 ft 12 kts 257°
2026-04-22 14:55 51.15411 -0.18272 209 ft 11 kts 197°
2026-04-22 14:55 51.15338 -0.18259 204 ft 10 kts 168°
2026-04-22 14:56 51.15273 -0.18236 210 ft 9 kts 166°
2026-04-22 14:56 51.15213 -0.18231 213 ft 8 kts 202°
2026-04-22 14:56 51.15186 -0.18302 210 ft 8 kts 254°
2026-04-22 14:56 51.15175 -0.18387 210 ft 8 kts 259°
2026-04-22 14:57 51.15165 -0.18473 208 ft 8 kts 258°
2026-04-22 14:57 51.15154 -0.18559 208 ft 8 kts 258°
2026-04-22 14:57 51.15142 -0.18646 209 ft 8 kts 257°
2026-04-22 14:57 51.15130 -0.18731 204 ft 8 kts 258°
2026-04-22 14:58 51.15119 -0.18814 208 ft 8 kts 257°
2026-04-22 14:58 51.15107 -0.18895 208 ft 7 kts 257°
2026-04-22 14:58 51.15097 -0.18972 210 ft 7 kts 258°
2026-04-22 14:58 51.15084 -0.19046 209 ft 7 kts 257°
2026-04-22 14:59 51.15077 -0.19122 204 ft 7 kts 264°
2026-04-22 14:59 51.15068 -0.19198 208 ft 5 kts 256°
2026-04-22 14:59 51.15067 -0.19202 207 ft 0 kts 256°
2026-04-22 14:59 51.15064 -0.19225 204 ft 7 kts 257°
2026-04-22 15:00 51.15044 -0.19368 205 ft 18 kts 258°
2026-04-22 15:00 51.15016 -0.19572 209 ft 15 kts 257°
2026-04-22 15:00 51.14995 -0.19711 208 ft 12 kts 257°
2026-04-22 15:00 51.14976 -0.19846 207 ft 13 kts 256°
2026-04-22 15:01 51.14956 -0.19985 213 ft 13 kts 257°
2026-04-22 15:01 51.14944 -0.20077 207 ft 12 kts 261°
2026-04-22 15:01 51.14930 -0.20198 202 ft 11 kts 255°
2026-04-22 15:01 51.14913 -0.20311 212 ft 10 kts 257°
2026-04-22 15:02 51.14900 -0.20390 201 ft 7 kts 255°
2026-04-22 15:02 51.14889 -0.20464 203 ft 7 kts 258°
2026-04-22 15:02 51.14880 -0.20538 205 ft 7 kts 261°
2026-04-22 15:02 51.14873 -0.20611 208 ft 7 kts 258°
2026-04-22 15:03 51.14862 -0.20682 201 ft 6 kts 257°
2026-04-22 15:03 51.14853 -0.20751 207 ft 6 kts 257°
2026-04-22 15:03 51.14843 -0.20819 201 ft 6 kts 259°
2026-04-22 15:03 51.14835 -0.20886 201 ft 6 kts 256°
2026-04-22 15:04 51.14826 -0.20951 212 ft 6 kts 259°
2026-04-22 15:04 51.14817 -0.21014 201 ft 6 kts 255°
2026-04-22 15:04 51.14811 -0.21058 207 ft 0 kts 257°
2026-04-22 15:05 51.14810 -0.21060 207 ft 1 kts 258°
2026-04-22 15:06 51.14806 -0.21095 203 ft 5 kts 258°
2026-04-22 15:06 51.14803 -0.21115 201 ft 4 kts 253°
2026-04-22 15:06 51.14793 -0.21153 206 ft 5 kts 246°
2026-04-22 15:06 51.14790 -0.21165 207 ft 0 kts 250°
2026-04-22 15:07 51.14789 -0.21169 208 ft 1 kts 251°
2026-04-22 15:07 51.14784 -0.21194 201 ft 0 kts 253°
2026-04-22 15:08 51.14783 -0.21202 204 ft 2 kts 254°
2026-04-22 15:08 51.14782 -0.21205 201 ft 0 kts 254°
2026-04-22 15:09 51.14781 -0.21216 205 ft 0 kts 257°
2026-04-22 15:10 51.14780 -0.21223 204 ft 0 kts 258°
2026-04-22 15:10 51.14779 -0.21230 201 ft 0 kts 257°
2026-04-22 15:11 51.14778 -0.21234 201 ft 2 kts 257°
2026-04-22 15:11 51.14777 -0.21239 201 ft 0 kts 254°
2026-04-22 15:11 51.14774 -0.21250 201 ft 1 kts 245°
2026-04-22 15:12 51.14773 -0.21254 201 ft 0 kts 248°
2026-04-22 15:12 51.14770 -0.21273 201 ft 0 kts 255°
2026-04-22 15:12 51.14769 -0.21278 210 ft 0 kts 257°
2026-04-22 15:12 51.14768 -0.21294 205 ft 5 kts 263°
2026-04-22 15:13 51.14766 -0.21311 204 ft 0 kts 262°
2026-04-22 15:13 51.14764 -0.21328 201 ft 0 kts 259°
2026-04-22 15:13 51.14763 -0.21339 201 ft 3 kts 257°
2026-04-22 15:14 51.14751 -0.21379 209 ft 0 kts 234°
2026-04-22 15:14 51.14747 -0.21386 207 ft 3 kts 224°
2026-04-22 15:14 51.14730 -0.21398 203 ft 0 kts 192°
2026-04-22 15:15 51.14711 -0.21394 200 ft 6 kts 165°
2026-04-22 15:15 51.14687 -0.21370 208 ft 5 kts 142°
2026-04-22 15:15 51.14682 -0.21364 203 ft 0 kts 146°
2026-04-22 15:16 51.14680 -0.21363 203 ft 0 kts 147°
2026-04-22 15:16 51.14678 -0.21361 203 ft 3 kts 148°
2026-04-22 15:17 51.14624 -0.21329 200 ft 2 kts 164°
2026-04-22 15:17 51.14618 -0.21327 201 ft 0 kts 165°
2026-04-22 15:18 51.14578 -0.21305 206 ft 11 kts 156°
2026-04-22 15:18 51.14523 -0.21214 205 ft 14 kts 108°
2026-04-22 15:18 51.14530 -0.21052 208 ft 10 kts 79°
2026-04-22 15:19 51.14536 -0.21005 210 ft 25 kts 77°
2026-04-22 15:19 51.14649 -0.20217 208 ft 117 kts 77°
2026-04-22 15:19 51.14827 -0.18601 509 ft 174 kts 79°
2026-04-22 15:19 51.15106 -0.16529 1029 ft 206 kts 76°
2026-04-22 15:20 51.15453 -0.14146 1456 ft 238 kts 78°
2026-04-22 15:20 51.15850 -0.11455 2072 ft 258 kts 77°
2026-04-22 15:20 51.16305 -0.08631 2871 ft 266 kts 76°
2026-04-22 15:20 51.16834 -0.05705 3602 ft 286 kts 72°
2026-04-22 15:21 51.17850 -0.02994 4578 ft 283 kts 52°
2026-04-22 15:21 51.19230 -0.00857 4839 ft 269 kts 48°
2026-04-22 15:21 51.20551 0.01140 5220 ft 256 kts 50°
2026-04-22 15:21 51.21658 0.03307 5588 ft 249 kts 59°
2026-04-22 15:22 51.22660 0.05555 6138 ft 252 kts 60°
2026-04-22 15:22 51.23653 0.07925 6548 ft 260 kts 62°
2026-04-22 15:22 51.24679 0.10343 6931 ft 268 kts 60°
2026-04-22 15:22 51.25699 0.12805 7000 ft 261 kts 68°
2026-04-22 15:23 51.26179 0.15505 7131 ft 252 kts 90°
2026-04-22 15:23 51.26251 0.18263 7152 ft 253 kts 88°
2026-04-22 15:23 51.26444 0.21130 7316 ft 271 kts 87°
2026-04-22 15:23 51.26679 0.24300 7582 ft 301 kts 85°
2026-04-22 15:24 51.27016 0.27691 8300 ft 312 kts 82°
2026-04-22 15:24 51.27836 0.30953 9237 ft 324 kts 59°
2026-04-22 15:24 51.29447 0.33550 10111 ft 339 kts 38°
2026-04-22 15:24 51.31652 0.35067 10917 ft 355 kts 15°
2026-04-22 15:25 51.34147 0.35088 11605 ft 366 kts 351°
2026-04-22 15:25 51.36578 0.33790 12563 ft 370 kts 340°
2026-04-22 15:25 51.38928 0.32143 13336 ft 377 kts 338°
2026-04-22 15:25 51.41349 0.30445 14109 ft 383 kts 339°
2026-04-22 15:26 51.43829 0.28757 14850 ft 386 kts 340°
2026-04-22 15:26 51.46321 0.27119 15675 ft 388 kts 340°
2026-04-22 15:26 51.48828 0.25492 16497 ft 390 kts 341°
2026-04-22 15:26 51.51370 0.23845 17165 ft 396 kts 341°
2026-04-22 15:27 51.53954 0.22170 17761 ft 402 kts 340°
2026-04-22 15:27 51.56490 0.20515 18782 ft 397 kts 340°
2026-04-22 15:27 51.59067 0.18835 19445 ft 400 kts 340°
2026-04-22 15:27 51.61662 0.17143 20073 ft 403 kts 340°
2026-04-22 15:28 51.64138 0.15062 20876 ft 403 kts 324°
2026-04-22 15:28 51.66071 0.11848 21863 ft 399 kts 307°
2026-04-22 15:28 51.67595 0.08114 22664 ft 399 kts 304°
2026-04-22 15:28 51.69068 0.04290 23235 ft 402 kts 304°
2026-04-22 15:29 51.70560 0.00452 23826 ft 405 kts 305°
2026-04-22 15:29 51.72077 -0.03374 24472 ft 404 kts 305°
2026-04-22 15:29 51.73639 -0.07130 25017 ft 404 kts 309°
2026-04-22 15:30 51.77709 -0.13347 25860 ft 408 kts 327°
2026-04-22 15:30 51.80139 -0.15735 26335 ft 409 kts 330°
2026-04-22 15:30 51.82613 -0.18033 26761 ft 409 kts 330°
2026-04-22 15:30 51.85076 -0.20313 27396 ft 406 kts 330°
2026-04-22 15:31 51.87515 -0.22590 28054 ft 403 kts 330°
2026-04-22 15:31 51.89935 -0.24870 28676 ft 401 kts 329°
2026-04-22 15:31 51.92336 -0.27151 29295 ft 399 kts 329°
2026-04-22 15:31 51.94717 -0.29424 29935 ft 396 kts 329°
2026-04-22 15:32 51.97079 -0.31687 30538 ft 393 kts 329°
2026-04-22 15:32 51.99435 -0.33949 31020 ft 392 kts 329°
2026-04-22 15:32 52.01779 -0.36205 31445 ft 392 kts 328°
2026-04-22 15:32 52.04126 -0.38464 31875 ft 392 kts 328°
2026-04-22 15:33 52.06472 -0.40720 32334 ft 390 kts 328°
2026-04-22 15:33 52.08806 -0.42966 32777 ft 390 kts 328°
2026-04-22 15:33 52.11135 -0.45218 33201 ft 389 kts 328°
2026-04-22 15:33 52.13459 -0.47469 33625 ft 389 kts 328°
2026-04-22 15:34 52.15782 -0.49729 34050 ft 388 kts 328°
2026-04-22 15:34 52.18068 -0.51955 34425 ft 388 kts 328°
2026-04-22 15:34 52.20383 -0.54209 34746 ft 388 kts 328°
2026-04-22 15:34 52.22705 -0.56470 35023 ft 389 kts 328°
2026-04-22 15:35 52.24277 -0.58003 35212 ft 390 kts 328°
2026-04-22 15:35 52.27365 -0.61013 35606 ft 390 kts 328°
2026-04-22 15:35 52.29694 -0.63291 35890 ft 391 kts 329°
2026-04-22 15:35 52.32038 -0.65586 36114 ft 393 kts 329°
2026-04-22 15:36 52.34393 -0.67892 36363 ft 395 kts 329°
2026-04-22 15:36 52.39156 -0.72560 36357 ft 400 kts 329°
2026-04-22 15:37 52.43889 -0.77207 36350 ft 395 kts 328°
2026-04-22 15:37 52.48637 -0.81895 36379 ft 407 kts 328°
2026-04-22 15:38 52.53556 -0.86775 36376 ft 418 kts 329°
2026-04-22 15:38 52.58607 -0.91795 36373 ft 429 kts 329°
2026-04-22 15:38 52.61173 -0.94344 36330 ft 431 kts 329°
2026-04-22 15:39 52.66327 -0.99449 36306 ft 433 kts 329°
2026-04-22 15:39 52.71491 -1.04576 36291 ft 434 kts 328°
2026-04-22 15:40 52.76621 -1.09692 36400 ft 433 kts 328°
2026-04-22 15:40 52.81767 -1.14857 36393 ft 432 kts 328°
2026-04-22 15:41 52.86885 -1.20025 36396 ft 430 kts 328°
2026-04-22 15:41 52.91982 -1.25194 36404 ft 429 kts 328°
2026-04-22 15:42 52.97061 -1.30344 36391 ft 427 kts 328°
2026-04-22 15:42 53.02133 -1.35471 36400 ft 426 kts 328°
2026-04-22 15:43 53.07192 -1.40601 36398 ft 425 kts 328°
2026-04-22 15:43 53.12217 -1.45727 36383 ft 426 kts 328°
2026-04-22 15:44 53.17266 -1.50895 36390 ft 426 kts 328°
2026-04-22 15:44 53.22318 -1.56089 36382 ft 427 kts 327°
2026-04-22 15:45 53.27388 -1.61308 36392 ft 428 kts 327°
2026-04-22 15:45 53.32469 -1.66539 36397 ft 429 kts 327°
2026-04-22 15:46 53.37559 -1.71786 36401 ft 429 kts 328°
2026-04-22 15:46 53.41788 -1.76172 36400 ft 430 kts 327°
2026-04-22 15:47 53.46873 -1.81451 36410 ft 429 kts 327°
2026-04-22 15:47 53.52772 -1.87605 36384 ft 430 kts 328°
2026-04-22 15:48 53.57020 -1.92055 36396 ft 430 kts 327°
2026-04-22 15:48 53.62060 -1.97337 36392 ft 429 kts 327°
2026-04-22 15:49 53.67138 -2.02645 36383 ft 429 kts 327°
2026-04-22 15:49 53.72213 -2.07969 36399 ft 429 kts 327°
2026-04-22 15:50 53.77509 -2.12615 36401 ft 431 kts 337°
2026-04-22 15:50 53.83116 -2.16290 36396 ft 432 kts 336°
2026-04-22 15:51 53.83979 -2.16872 36394 ft 432 kts 335°
2026-04-22 15:53 53.85457 -2.17878 36401 ft 432 kts 336°
2026-04-22 15:53 53.91055 -2.21726 36393 ft 436 kts 336°
2026-04-22 15:54 53.96706 -2.25608 36405 ft 439 kts 336°
2026-04-22 15:54 54.02360 -2.29494 36406 ft 434 kts 336°
2026-04-22 15:55 54.05072 -2.31351 36390 ft 418 kts 336°
2026-04-22 15:55 54.07729 -2.33166 36365 ft 403 kts 336°
2026-04-22 15:55 54.10302 -2.34929 36189 ft 394 kts 336°
2026-04-22 15:55 54.12843 -2.36680 35792 ft 391 kts 335°
2026-04-22 15:56 54.15355 -2.38418 35375 ft 389 kts 335°
2026-04-22 15:56 54.17879 -2.40172 34656 ft 394 kts 335°
2026-04-22 15:56 54.20454 -2.41967 33703 ft 404 kts 335°
2026-04-22 15:56 54.23072 -2.43793 32989 ft 407 kts 335°
2026-04-22 15:57 54.25693 -2.45619 32602 ft 401 kts 335°
2026-04-22 15:57 54.28234 -2.47387 32248 ft 395 kts 335°
2026-04-22 15:57 54.30771 -2.49155 31800 ft 392 kts 335°
2026-04-22 15:57 54.33297 -2.50919 31300 ft 391 kts 334°
2026-04-22 15:58 54.35810 -2.52679 30873 ft 388 kts 334°
2026-04-22 15:58 54.38292 -2.54419 30492 ft 383 kts 334°
2026-04-22 15:58 54.40756 -2.56148 29985 ft 380 kts 335°
2026-04-22 15:58 54.43198 -2.57865 29395 ft 379 kts 334°
2026-04-22 15:59 54.45655 -2.59598 28543 ft 385 kts 334°
2026-04-22 15:59 54.48134 -2.61349 27927 ft 384 kts 335°
2026-04-22 15:59 54.50607 -2.63096 27359 ft 383 kts 335°
2026-04-22 15:59 54.53034 -2.64811 26842 ft 381 kts 335°
2026-04-22 16:00 54.55480 -2.66541 26385 ft 378 kts 335°
2026-04-22 16:00 54.57908 -2.68260 25944 ft 374 kts 335°
2026-04-22 16:00 54.60306 -2.69961 25436 ft 373 kts 334°
2026-04-22 16:00 54.62705 -2.71667 24884 ft 373 kts 335°
2026-04-22 16:01 54.65105 -2.73376 24432 ft 371 kts 335°
2026-04-22 16:01 54.67478 -2.75066 24078 ft 366 kts 334°
2026-04-22 16:01 54.69815 -2.76733 23597 ft 363 kts 335°
2026-04-22 16:01 54.72155 -2.78406 22971 ft 365 kts 335°
2026-04-22 16:02 54.74498 -2.80085 22418 ft 364 kts 335°
2026-04-22 16:02 54.76836 -2.81761 21910 ft 362 kts 334°
2026-04-22 16:02 54.79157 -2.83429 21451 ft 360 kts 335°
2026-04-22 16:02 54.81468 -2.85092 21067 ft 356 kts 335°
2026-04-22 16:03 54.83719 -2.86709 21104 ft 348 kts 335°
2026-04-22 16:03 54.86013 -2.88360 21132 ft 367 kts 334°
2026-04-22 16:03 54.88431 -2.90108 21145 ft 383 kts 334°
2026-04-22 16:03 54.90903 -2.91896 21132 ft 386 kts 335°
2026-04-22 16:04 54.93388 -2.93690 21128 ft 387 kts 335°
2026-04-22 16:04 54.95849 -2.95470 21131 ft 387 kts 335°
2026-04-22 16:04 54.98335 -2.97273 21136 ft 387 kts 334°
2026-04-22 16:04 55.00814 -2.99076 21129 ft 387 kts 334°
2026-04-22 16:05 55.03304 -3.00893 21137 ft 388 kts 335°
2026-04-22 16:05 55.05795 -3.02714 21143 ft 388 kts 335°
2026-04-22 16:05 55.08283 -3.04537 21094 ft 388 kts 334°
2026-04-22 16:05 55.10776 -3.06365 20819 ft 388 kts 334°
2026-04-22 16:06 55.13260 -3.08183 20581 ft 387 kts 335°
2026-04-22 16:06 55.15747 -3.10005 20348 ft 390 kts 334°
2026-04-22 16:06 55.18280 -3.11865 19645 ft 394 kts 335°
2026-04-22 16:06 55.20816 -3.13725 19043 ft 395 kts 335°
2026-04-22 16:07 55.23353 -3.15590 18389 ft 395 kts 335°
2026-04-22 16:07 55.25889 -3.17455 17719 ft 394 kts 335°
2026-04-22 16:07 55.28381 -3.19278 17104 ft 393 kts 337°
2026-04-22 16:07 55.31045 -3.20309 16489 ft 394 kts 359°
2026-04-22 16:08 55.33769 -3.20029 15933 ft 391 kts
2026-04-22 16:08 55.36470 -3.19560 15317 ft 390 kts
2026-04-22 16:08 55.39171 -3.19066 14714 ft 389 kts
2026-04-22 16:08 55.41858 -3.18590 14100 ft 387 kts
2026-04-22 16:09 55.44540 -3.18136 13463 ft 385 kts
2026-04-22 16:09 55.47201 -3.17704 12849 ft 383 kts
2026-04-22 16:09 55.49845 -3.17284 12241 ft 380 kts
2026-04-22 16:09 55.52464 -3.16874 11624 ft 373 kts
2026-04-22 16:10 55.55009 -3.16477 11042 ft 361 kts
2026-04-22 16:10 55.57467 -3.16093 10495 ft 349 kts
2026-04-22 16:10 55.59048 -3.15845 10378 ft 335 kts
2026-04-22 16:10 55.61969 -3.15384 10295 ft 305 kts
2026-04-22 16:11 55.64031 -3.15056 10115 ft 290 kts
2026-04-22 16:11 55.66023 -3.14737 9705 ft 285 kts
2026-04-22 16:11 55.67988 -3.14420 9244 ft 282 kts
2026-04-22 16:11 55.69946 -3.14657 8692 ft 286 kts 342°
2026-04-22 16:12 55.71582 -3.16493 8508 ft 274 kts 313°
2026-04-22 16:12 55.72605 -3.19278 8056 ft 271 kts 289°
2026-04-22 16:12 55.73172 -3.22475 7627 ft 270 kts 285°
2026-04-22 16:12 55.73668 -3.25637 7320 ft 264 kts 284°
2026-04-22 16:13 55.74150 -3.28779 6913 ft 263 kts 284°
2026-04-22 16:13 55.74629 -3.31899 6731 ft 262 kts 284°
2026-04-22 16:13 55.75106 -3.34983 6560 ft 263 kts 284°
2026-04-22 16:13 55.75594 -3.38137 6253 ft 270 kts 284°
2026-04-22 16:14 55.76102 -3.41407 5946 ft 270 kts 284°
2026-04-22 16:14 55.76598 -3.44603 5638 ft 268 kts 284°
2026-04-22 16:14 55.77084 -3.47729 5435 ft 263 kts 284°
2026-04-22 16:14 55.77563 -3.50823 5272 ft 257 kts 285°
2026-04-22 16:15 55.78031 -3.53843 5110 ft 250 kts 284°
2026-04-22 16:15 55.78484 -3.56766 4960 ft 242 kts 284°
2026-04-22 16:15 55.78925 -3.59610 4796 ft 235 kts 284°
2026-04-22 16:15 55.79352 -3.62362 4685 ft 230 kts 283°
2026-04-22 16:16 55.79779 -3.65114 4568 ft 231 kts 283°
2026-04-22 16:16 55.80203 -3.67855 4456 ft 229 kts 284°
2026-04-22 16:16 55.80672 -3.70566 4300 ft 231 kts 296°
2026-04-22 16:16 55.81786 -3.72482 4183 ft 228 kts 345°
2026-04-22 16:17 55.83296 -3.72485 4101 ft 220 kts 31°
2026-04-22 16:17 55.84316 -3.70690 4005 ft 199 kts 77°
2026-04-22 16:17 55.84674 -3.68436 3966 ft 186 kts 70°
2026-04-22 16:17 55.85275 -3.66502 3989 ft 172 kts 68°
2026-04-22 16:18 55.85839 -3.64622 3998 ft 172 kts 70°
2026-04-22 16:18 55.86418 -3.62756 3988 ft 173 kts 66°
2026-04-22 16:18 55.87027 -3.60891 4005 ft 173 kts 65°
2026-04-22 16:18 55.87625 -3.59106 3955 ft 165 kts 67°
2026-04-22 16:19 55.88213 -3.57356 3779 ft 161 kts 67°
2026-04-22 16:19 55.88777 -3.55680 3503 ft 154 kts 67°
2026-04-22 16:19 55.89308 -3.54098 3282 ft 142 kts 67°
2026-04-22 16:19 55.89812 -3.52596 2788 ft 145 kts 66°
2026-04-22 16:20 55.90327 -3.51074 2270 ft 143 kts 65°
2026-04-22 16:20 55.90835 -3.49567 1762 ft 141 kts 65°
2026-04-22 16:20 55.91328 -3.48108 1420 ft 131 kts 65°
2026-04-22 16:20 55.91776 -3.46768 1207 ft 122 kts 66°
2026-04-22 16:21 55.92210 -3.45478 1045 ft 121 kts 66°
2026-04-22 16:21 55.92644 -3.44196 868 ft 118 kts 64°
2026-04-22 16:21 55.93041 -3.42923 700 ft 117 kts 64°
2026-04-22 16:21 55.93479 -3.41672 600 ft 120 kts 57°
2026-04-22 16:22 55.94381 -3.39093 214 ft 120 kts 62°
2026-04-22 16:22 55.94787 -3.37869 116 ft 104 kts 59°
2026-04-22 16:22 55.95045 -3.37109 111 ft 60 kts 58°
2026-04-22 16:23 55.95254 -3.36445 110 ft 13 kts 103°
2026-04-22 16:23 55.95214 -3.36374 113 ft 6 kts 146°
2026-04-22 16:23 55.95163 -3.36321 114 ft 10 kts 159°
2026-04-22 16:24 55.95091 -3.36387 115 ft 10 kts 211°
2026-04-22 16:24 55.94975 -3.36394 115 ft 9 kts 152°
2026-04-22 16:24 55.94949 -3.36366 114 ft 0 kts 148°